Year,Month,Day,Hour,Minute,Value (Times are PST for temperature in C)
2015,08,23,00,00,15.70
2015,08,23,00,01,15.70
2015,08,23,00,02,15.70
2015,08,23,00,03,15.70
2015,08,23,00,04,15.70
2015,08,23,00,05,15.70
2015,08,23,00,06,15.70
2015,08,23,00,07,15.70
2015,08,23,00,08,15.70
2015,08,23,00,09,15.70
2015,08,23,00,10,15.70
2015,08,23,00,11,15.70
2015,08,23,00,12,15.70
2015,08,23,00,13,15.60
2015,08,23,00,14,15.60
2015,08,23,00,15,15.50
2015,08,23,00,16,15.50
2015,08,23,00,17,15.50
2015,08,23,00,18,15.40
2015,08,23,00,19,15.40
2015,08,23,00,20,15.40
2015,08,23,00,21,15.40
2015,08,23,00,22,15.40
2015,08,23,00,23,15.40
2015,08,23,00,24,15.40
2015,08,23,00,25,15.40
2015,08,23,00,26,15.40
2015,08,23,00,27,15.40
2015,08,23,00,28,15.40
2015,08,23,00,29,15.40
2015,08,23,00,30,15.40
2015,08,23,00,31,15.40
2015,08,23,00,32,15.40
2015,08,23,00,33,15.40
2015,08,23,00,34,15.40
2015,08,23,00,35,15.40
2015,08,23,00,36,15.40
2015,08,23,00,37,15.40
2015,08,23,00,38,15.40
2015,08,23,00,39,15.40
2015,08,23,00,40,15.40
2015,08,23,00,41,15.40
2015,08,23,00,42,15.30
2015,08,23,00,43,15.30
2015,08,23,00,44,15.30
2015,08,23,00,45,15.30
2015,08,23,00,46,15.30
2015,08,23,00,47,15.20
2015,08,23,00,48,15.20
2015,08,23,00,49,15.20
2015,08,23,00,50,15.10
2015,08,23,00,51,15.10
2015,08,23,00,52,15.00
2015,08,23,00,53,15.00
2015,08,23,00,54,15.00
2015,08,23,00,55,14.90
2015,08,23,00,56,14.90
2015,08,23,00,57,14.90
2015,08,23,00,58,14.90
2015,08,23,00,59,14.90
2015,08,23,01,00,14.80
2015,08,23,01,01,14.80
2015,08,23,01,02,14.80
2015,08,23,01,03,14.80
2015,08,23,01,04,14.80
2015,08,23,01,05,14.80
2015,08,23,01,06,14.70
2015,08,23,01,07,14.70
2015,08,23,01,08,14.70
2015,08,23,01,09,14.70
2015,08,23,01,10,14.60
2015,08,23,01,11,14.60
2015,08,23,01,12,14.60
2015,08,23,01,13,14.60
2015,08,23,01,14,14.60
2015,08,23,01,15,14.50
2015,08,23,01,16,14.50
2015,08,23,01,17,14.50
2015,08,23,01,18,14.40
2015,08,23,01,19,14.40
2015,08,23,01,20,14.40
2015,08,23,01,21,14.40
2015,08,23,01,22,14.40
2015,08,23,01,23,14.40
2015,08,23,01,24,14.30
2015,08,23,01,25,14.30
2015,08,23,01,26,14.30
2015,08,23,01,27,14.30
2015,08,23,01,28,14.30
2015,08,23,01,29,14.20
2015,08,23,01,30,14.20
2015,08,23,01,31,14.20
2015,08,23,01,32,14.20
2015,08,23,01,33,14.10
2015,08,23,01,34,14.10
2015,08,23,01,35,14.10
2015,08,23,01,36,14.10
2015,08,23,01,37,14.10
2015,08,23,01,38,14.10
2015,08,23,01,39,14.10
2015,08,23,01,40,14.10
2015,08,23,01,41,14.10
2015,08,23,01,42,14.10
2015,08,23,01,43,14.10
2015,08,23,01,44,14.10
2015,08,23,01,45,14.10
2015,08,23,01,46,14.10
2015,08,23,01,47,14.10
2015,08,23,01,48,14.00
2015,08,23,01,49,14.00
2015,08,23,01,50,14.00
2015,08,23,01,51,14.00
2015,08,23,01,52,14.00
2015,08,23,01,53,14.00
2015,08,23,01,54,13.90
2015,08,23,01,55,13.90
2015,08,23,01,56,13.90
2015,08,23,01,57,13.90
2015,08,23,01,58,13.90
2015,08,23,01,59,13.90
2015,08,23,02,00,13.90
2015,08,23,02,01,13.90
2015,08,23,02,02,13.90
2015,08,23,02,03,13.90
2015,08,23,02,04,13.90
2015,08,23,02,05,13.90
2015,08,23,02,06,13.90
2015,08,23,02,07,13.90
2015,08,23,02,08,13.90
2015,08,23,02,09,13.90
2015,08,23,02,10,13.80
2015,08,23,02,11,13.80
2015,08,23,02,12,13.80
2015,08,23,02,13,13.80
2015,08,23,02,14,13.80
2015,08,23,02,15,13.80
2015,08,23,02,16,13.80
2015,08,23,02,17,13.80
2015,08,23,02,18,13.80
2015,08,23,02,19,13.70
2015,08,23,02,20,13.70
2015,08,23,02,21,13.70
2015,08,23,02,22,13.70
2015,08,23,02,23,13.70
2015,08,23,02,24,13.70
2015,08,23,02,25,13.70
2015,08,23,02,26,13.60
2015,08,23,02,27,13.60
2015,08,23,02,28,13.60
2015,08,23,02,29,13.60
2015,08,23,02,30,13.60
2015,08,23,02,31,13.60
2015,08,23,02,32,13.60
2015,08,23,02,33,13.60
2015,08,23,02,34,13.60
2015,08,23,02,35,13.60
2015,08,23,02,36,13.60
2015,08,23,02,37,13.60
2015,08,23,02,38,13.60
2015,08,23,02,39,13.60
2015,08,23,02,40,13.60
2015,08,23,02,41,13.60
2015,08,23,02,42,13.60
2015,08,23,02,43,13.60
2015,08,23,02,44,13.60
2015,08,23,02,45,13.60
2015,08,23,02,46,13.60
2015,08,23,02,47,13.60
2015,08,23,02,48,13.50
2015,08,23,02,49,13.50
2015,08,23,02,50,13.50
2015,08,23,02,51,13.50
2015,08,23,02,52,13.40
2015,08,23,02,53,13.40
2015,08,23,02,54,13.40
2015,08,23,02,55,13.40
2015,08,23,02,56,13.40
2015,08,23,02,57,13.40
2015,08,23,02,58,13.40
2015,08,23,02,59,13.40
2015,08,23,03,00,13.40
2015,08,23,03,01,13.30
2015,08,23,03,02,13.30
2015,08,23,03,03,13.30
2015,08,23,03,04,13.30
2015,08,23,03,05,13.30
2015,08,23,03,06,13.30
2015,08,23,03,07,13.30
2015,08,23,03,08,13.30
2015,08,23,03,09,13.30
2015,08,23,03,10,13.30
2015,08,23,03,11,13.30
2015,08,23,03,12,13.30
2015,08,23,03,13,13.20
2015,08,23,03,14,13.20
2015,08,23,03,15,13.20
2015,08,23,03,16,13.20
2015,08,23,03,17,13.20
2015,08,23,03,18,13.20
2015,08,23,03,19,13.20
2015,08,23,03,20,13.20
2015,08,23,03,21,13.10
2015,08,23,03,22,13.10
2015,08,23,03,23,13.10
2015,08,23,03,24,13.10
2015,08,23,03,25,13.10
2015,08,23,03,26,13.10
2015,08,23,03,27,13.00
2015,08,23,03,28,13.00
2015,08,23,03,29,13.00
2015,08,23,03,30,13.00
2015,08,23,03,31,13.00
2015,08,23,03,32,13.00
2015,08,23,03,33,13.00
2015,08,23,03,34,13.00
2015,08,23,03,35,13.00
2015,08,23,03,36,13.00
2015,08,23,03,37,13.00
2015,08,23,03,38,13.00
2015,08,23,03,39,13.00
2015,08,23,03,40,13.00
2015,08,23,03,41,13.00
2015,08,23,03,42,13.00
2015,08,23,03,43,13.00
2015,08,23,03,44,13.00
2015,08,23,03,45,13.00
2015,08,23,03,46,13.00
2015,08,23,03,47,13.00
2015,08,23,03,48,13.00
2015,08,23,03,49,13.00
2015,08,23,03,50,13.00
2015,08,23,03,51,13.00
2015,08,23,03,52,12.90
2015,08,23,03,53,12.90
2015,08,23,03,54,12.90
2015,08,23,03,55,12.90
2015,08,23,03,56,12.80
2015,08,23,03,57,12.80
2015,08,23,03,58,12.80
2015,08,23,03,59,12.80
2015,08,23,04,00,12.80
2015,08,23,04,01,12.80
2015,08,23,04,02,12.80
2015,08,23,04,03,12.80
2015,08,23,04,04,12.80
2015,08,23,04,05,12.80
2015,08,23,04,06,12.80
2015,08,23,04,07,12.80
2015,08,23,04,08,12.80
2015,08,23,04,09,12.80
2015,08,23,04,10,12.80
2015,08,23,04,11,12.80
2015,08,23,04,12,12.70
2015,08,23,04,13,12.70
2015,08,23,04,14,12.70
2015,08,23,04,15,12.70
2015,08,23,04,16,12.60
2015,08,23,04,17,12.60
2015,08,23,04,18,12.60
2015,08,23,04,19,12.60
2015,08,23,04,20,12.60
2015,08,23,04,21,12.60
2015,08,23,04,22,12.50
2015,08,23,04,23,12.50
2015,08,23,04,24,12.50
2015,08,23,04,25,12.50
2015,08,23,04,26,12.50
2015,08,23,04,27,12.50
2015,08,23,04,28,12.50
2015,08,23,04,29,12.40
2015,08,23,04,30,12.40
2015,08,23,04,31,12.40
2015,08,23,04,32,12.40
2015,08,23,04,33,12.40
2015,08,23,04,34,12.40
2015,08,23,04,35,12.40
2015,08,23,04,36,12.40
2015,08,23,04,37,12.30
2015,08,23,04,38,12.30
2015,08,23,04,39,12.30
2015,08,23,04,40,12.30
2015,08,23,04,41,12.30
2015,08,23,04,42,12.20
2015,08,23,04,43,12.20
2015,08,23,04,44,12.20
2015,08,23,04,45,12.20
2015,08,23,04,46,12.10
2015,08,23,04,47,12.10
2015,08,23,04,48,12.10
2015,08,23,04,49,12.10
2015,08,23,04,50,12.10
2015,08,23,04,51,12.00
2015,08,23,04,52,12.00
2015,08,23,04,53,12.00
2015,08,23,04,54,12.00
2015,08,23,04,55,12.00
2015,08,23,04,56,12.00
2015,08,23,04,57,11.90
2015,08,23,04,58,11.90
2015,08,23,04,59,11.90
2015,08,23,05,00,11.90
2015,08,23,05,01,11.90
2015,08,23,05,02,11.90
2015,08,23,05,03,11.90
2015,08,23,05,04,11.90
2015,08,23,05,05,11.90
2015,08,23,05,06,11.90
2015,08,23,05,07,11.90
2015,08,23,05,08,11.80
2015,08,23,05,09,11.80
2015,08,23,05,10,11.80
2015,08,23,05,11,11.80
2015,08,23,05,12,11.80
2015,08,23,05,13,11.80
2015,08,23,05,14,11.80
2015,08,23,05,15,11.80
2015,08,23,05,16,11.80
2015,08,23,05,17,11.80
2015,08,23,05,18,11.80
2015,08,23,05,19,11.70
2015,08,23,05,20,11.70
2015,08,23,05,21,11.70
2015,08,23,05,22,11.70
2015,08,23,05,23,11.70
2015,08,23,05,24,11.70
2015,08,23,05,25,11.70
2015,08,23,05,26,11.70
2015,08,23,05,27,11.70
2015,08,23,05,28,11.70
2015,08,23,05,29,11.60
2015,08,23,05,30,11.60
2015,08,23,05,31,11.60
2015,08,23,05,32,11.60
2015,08,23,05,33,11.60
2015,08,23,05,34,11.60
2015,08,23,05,35,11.60
2015,08,23,05,36,11.60
2015,08,23,05,37,11.60
2015,08,23,05,38,11.50
2015,08,23,05,39,11.50
2015,08,23,05,40,11.50
2015,08,23,05,41,11.50
2015,08,23,05,42,11.50
2015,08,23,05,43,11.50
2015,08,23,05,44,11.50
2015,08,23,05,45,11.50
2015,08,23,05,46,11.40
2015,08,23,05,47,11.40
2015,08,23,05,48,11.40
2015,08,23,05,49,11.40
2015,08,23,05,50,11.40
2015,08,23,05,51,11.40
2015,08,23,05,52,11.40
2015,08,23,05,53,11.40
2015,08,23,05,54,11.30
2015,08,23,05,55,11.30
2015,08,23,05,56,11.30
2015,08,23,05,57,11.30
2015,08,23,05,58,11.30
2015,08,23,05,59,11.30
2015,08,23,06,00,11.30
2015,08,23,06,01,11.30
2015,08,23,06,02,11.30
2015,08,23,06,03,11.30
2015,08,23,06,04,11.30
2015,08,23,06,05,11.30
2015,08,23,06,06,11.30
2015,08,23,06,07,11.20
2015,08,23,06,08,11.20
2015,08,23,06,09,11.20
2015,08,23,06,10,11.20
2015,08,23,06,11,11.20
2015,08,23,06,12,11.20
2015,08,23,06,13,11.20
2015,08,23,06,14,11.20
2015,08,23,06,15,11.20
2015,08,23,06,16,11.20
2015,08,23,06,17,11.20
2015,08,23,06,18,11.20
2015,08,23,06,19,11.20
2015,08,23,06,20,11.20
2015,08,23,06,21,11.20
2015,08,23,06,22,11.20
2015,08,23,06,23,11.20
2015,08,23,06,24,11.20
2015,08,23,06,25,11.20
2015,08,23,06,26,11.20
2015,08,23,06,27,11.20
2015,08,23,06,28,11.20
2015,08,23,06,29,11.20
2015,08,23,06,30,11.20
2015,08,23,06,31,11.20
2015,08,23,06,32,11.20
2015,08,23,06,33,11.20
2015,08,23,06,34,11.20
2015,08,23,06,35,11.20
2015,08,23,06,36,11.20
2015,08,23,06,37,11.10
2015,08,23,06,38,11.10
2015,08,23,06,39,11.20
2015,08,23,06,40,11.20
2015,08,23,06,41,11.20
2015,08,23,06,42,11.20
2015,08,23,06,43,11.20
2015,08,23,06,44,11.20
2015,08,23,06,45,11.20
2015,08,23,06,46,11.20
2015,08,23,06,47,11.20
2015,08,23,06,48,11.20
2015,08,23,06,49,11.20
2015,08,23,06,50,11.30
2015,08,23,06,51,11.30
2015,08,23,06,52,11.30
2015,08,23,06,53,11.30
2015,08,23,06,54,11.30
2015,08,23,06,55,11.30
2015,08,23,06,56,11.30
2015,08,23,06,57,11.30
2015,08,23,06,58,11.40
2015,08,23,06,59,11.40
2015,08,23,07,00,11.40
2015,08,23,07,01,11.40
2015,08,23,07,02,11.40
2015,08,23,07,03,11.40
2015,08,23,07,04,11.40
2015,08,23,07,05,11.40
2015,08,23,07,06,11.40
2015,08,23,07,07,11.40
2015,08,23,07,08,11.40
2015,08,23,07,09,11.40
2015,08,23,07,10,11.50
2015,08,23,07,11,11.50
2015,08,23,07,12,11.50
2015,08,23,07,13,11.50
2015,08,23,07,14,11.60
2015,08,23,07,15,11.60
2015,08,23,07,16,11.60
2015,08,23,07,17,11.60
2015,08,23,07,18,11.60
2015,08,23,07,19,11.70
2015,08,23,07,20,11.70
2015,08,23,07,21,11.70
2015,08,23,07,22,11.80
2015,08,23,07,23,11.80
2015,08,23,07,24,11.80
2015,08,23,07,25,11.90
2015,08,23,07,26,11.90
2015,08,23,07,27,12.00
2015,08,23,07,28,12.00
2015,08,23,07,29,12.10
2015,08,23,07,30,12.10
2015,08,23,07,31,12.20
2015,08,23,07,32,12.30
2015,08,23,07,33,12.30
2015,08,23,07,34,12.30
2015,08,23,07,35,12.40
2015,08,23,07,36,12.50
2015,08,23,07,37,12.50
2015,08,23,07,38,12.60
2015,08,23,07,39,12.60
2015,08,23,07,40,12.70
2015,08,23,07,41,12.70
2015,08,23,07,42,12.70
2015,08,23,07,43,12.80
2015,08,23,07,44,12.80
2015,08,23,07,45,12.90
2015,08,23,07,46,12.90
2015,08,23,07,47,13.00
2015,08,23,07,48,13.00
2015,08,23,07,49,13.10
2015,08,23,07,50,13.20
2015,08,23,07,51,13.30
2015,08,23,07,52,13.30
2015,08,23,07,53,13.40
2015,08,23,07,54,13.50
2015,08,23,07,55,13.60
2015,08,23,07,56,13.70
2015,08,23,07,57,13.70
2015,08,23,07,58,13.80
2015,08,23,07,59,13.90
2015,08,23,08,00,14.00
2015,08,23,08,01,14.10
2015,08,23,08,02,14.20
2015,08,23,08,03,14.20
2015,08,23,08,04,14.30
2015,08,23,08,05,14.40
2015,08,23,08,06,14.50
2015,08,23,08,07,14.60
2015,08,23,08,08,14.60
2015,08,23,08,09,14.70
2015,08,23,08,10,14.80
2015,08,23,08,11,14.90
2015,08,23,08,12,14.90
2015,08,23,08,13,15.00
2015,08,23,08,14,15.10
2015,08,23,08,15,15.20
2015,08,23,08,16,15.20
2015,08,23,08,17,15.30
2015,08,23,08,18,15.40
2015,08,23,08,19,15.50
2015,08,23,08,20,15.50
2015,08,23,08,21,15.60
2015,08,23,08,22,15.70
2015,08,23,08,23,15.80
2015,08,23,08,24,15.80
2015,08,23,08,25,15.90
2015,08,23,08,26,16.00
2015,08,23,08,27,16.10
2015,08,23,08,28,16.10
2015,08,23,08,29,16.20
2015,08,23,08,30,16.20
2015,08,23,08,31,16.30
2015,08,23,08,32,16.30
2015,08,23,08,33,16.40
2015,08,23,08,34,16.40
2015,08,23,08,35,16.50
2015,08,23,08,36,16.50
2015,08,23,08,37,16.60
2015,08,23,08,38,16.60
2015,08,23,08,39,16.60
2015,08,23,08,40,16.60
2015,08,23,08,41,16.70
2015,08,23,08,42,16.70
2015,08,23,08,43,16.70
2015,08,23,08,44,16.70
2015,08,23,08,45,16.70
2015,08,23,08,46,16.70
2015,08,23,08,47,16.70
2015,08,23,08,48,16.70
2015,08,23,08,49,16.80
2015,08,23,08,50,16.80
2015,08,23,08,51,16.80
2015,08,23,08,52,16.80
2015,08,23,08,53,16.80
2015,08,23,08,54,16.90
2015,08,23,08,55,16.90
2015,08,23,08,56,16.90
2015,08,23,08,57,16.90
2015,08,23,08,58,17.00
2015,08,23,08,59,17.00
2015,08,23,09,00,17.00
2015,08,23,09,01,17.10
2015,08,23,09,02,17.20
2015,08,23,09,03,17.20
2015,08,23,09,04,17.20
2015,08,23,09,05,17.30
2015,08,23,09,06,17.30
2015,08,23,09,07,17.30
2015,08,23,09,08,17.40
2015,08,23,09,09,17.40
2015,08,23,09,10,17.50
2015,08,23,09,11,17.50
2015,08,23,09,12,17.60
2015,08,23,09,13,17.60
2015,08,23,09,14,17.70
2015,08,23,09,15,17.70
2015,08,23,09,16,17.80
2015,08,23,09,17,17.80
2015,08,23,09,18,17.90
2015,08,23,09,19,17.90
2015,08,23,09,20,18.00
2015,08,23,09,21,18.00
2015,08,23,09,22,18.10
2015,08,23,09,23,18.10
2015,08,23,09,24,18.10
2015,08,23,09,25,18.20
2015,08,23,09,26,18.30
2015,08,23,09,27,18.30
2015,08,23,09,28,18.30
2015,08,23,09,29,18.30
2015,08,23,09,30,18.40
2015,08,23,09,31,18.40
2015,08,23,09,32,18.40
2015,08,23,09,33,18.50
2015,08,23,09,34,18.60
2015,08,23,09,35,18.60
2015,08,23,09,36,18.60
2015,08,23,09,37,18.70
2015,08,23,09,38,18.70
2015,08,23,09,39,18.70
2015,08,23,09,40,18.70
2015,08,23,09,41,18.80
2015,08,23,09,42,18.80
2015,08,23,09,43,18.80
2015,08,23,09,44,18.80
2015,08,23,09,45,18.80
2015,08,23,09,46,18.80
2015,08,23,09,47,18.90
2015,08,23,09,48,18.90
2015,08,23,09,49,19.00
2015,08,23,09,50,19.00
2015,08,23,09,51,19.10
2015,08,23,09,52,19.20
2015,08,23,09,53,19.20
2015,08,23,09,54,19.30
2015,08,23,09,55,19.30
2015,08,23,09,56,19.40
2015,08,23,09,57,19.40
2015,08,23,09,58,19.50
2015,08,23,09,59,19.50
2015,08,23,10,00,19.50
2015,08,23,10,01,19.50
2015,08,23,10,02,19.60
2015,08,23,10,03,19.60
2015,08,23,10,04,19.70
2015,08,23,10,05,19.70
2015,08,23,10,06,19.70
2015,08,23,10,07,19.80
2015,08,23,10,08,19.80
2015,08,23,10,09,19.80
2015,08,23,10,10,19.90
2015,08,23,10,11,20.00
2015,08,23,10,12,20.00
2015,08,23,10,13,20.10
2015,08,23,10,14,20.10
2015,08,23,10,15,20.10
2015,08,23,10,16,20.10
2015,08,23,10,17,20.10
2015,08,23,10,18,20.20
2015,08,23,10,19,20.20
2015,08,23,10,20,20.10
2015,08,23,10,21,20.10
2015,08,23,10,22,20.10
2015,08,23,10,23,20.20
2015,08,23,10,24,20.20
2015,08,23,10,25,20.20
2015,08,23,10,26,20.30
2015,08,23,10,27,20.30
2015,08,23,10,28,20.30
2015,08,23,10,29,20.30
2015,08,23,10,30,20.30
2015,08,23,10,31,20.30
2015,08,23,10,32,20.30
2015,08,23,10,33,20.40
2015,08,23,10,34,20.30
2015,08,23,10,35,20.40
2015,08,23,10,36,20.30
2015,08,23,10,37,20.30
2015,08,23,10,38,20.40
2015,08,23,10,39,20.40
2015,08,23,10,40,20.50
2015,08,23,10,41,20.50
2015,08,23,10,42,20.50
2015,08,23,10,43,20.50
2015,08,23,10,44,20.60
2015,08,23,10,45,20.60
2015,08,23,10,46,20.60
2015,08,23,10,47,20.60
2015,08,23,10,48,20.60
2015,08,23,10,49,20.70
2015,08,23,10,50,20.70
2015,08,23,10,51,20.70
2015,08,23,10,52,20.70
2015,08,23,10,53,20.70
2015,08,23,10,54,20.80
2015,08,23,10,55,20.80
2015,08,23,10,56,20.70
2015,08,23,10,57,20.80
2015,08,23,10,58,20.80
2015,08,23,10,59,20.90
2015,08,23,11,00,21.00
2015,08,23,11,01,21.00
2015,08,23,11,02,21.00
2015,08,23,11,03,21.00
2015,08,23,11,04,21.00
2015,08,23,11,05,21.00
2015,08,23,11,06,21.00
2015,08,23,11,07,21.00
2015,08,23,11,08,21.10
2015,08,23,11,09,21.00
2015,08,23,11,10,21.00
2015,08,23,11,11,21.00
2015,08,23,11,12,21.00
2015,08,23,11,13,21.00
2015,08,23,11,14,21.00
2015,08,23,11,15,21.10
2015,08,23,11,16,21.10
2015,08,23,11,17,21.10
2015,08,23,11,18,21.20
2015,08,23,11,19,21.20
2015,08,23,11,20,21.20
2015,08,23,11,21,21.20
2015,08,23,11,22,21.10
2015,08,23,11,23,21.10
2015,08,23,11,24,21.10
2015,08,23,11,25,21.20
2015,08,23,11,26,21.20
2015,08,23,11,27,21.20
2015,08,23,11,28,21.30
2015,08,23,11,29,21.40
2015,08,23,11,30,21.40
2015,08,23,11,31,21.40
2015,08,23,11,32,21.40
2015,08,23,11,33,21.50
2015,08,23,11,34,21.50
2015,08,23,11,35,21.50
2015,08,23,11,36,21.50
2015,08,23,11,37,21.50
2015,08,23,11,38,21.50
2015,08,23,11,39,21.60
2015,08,23,11,40,21.60
2015,08,23,11,41,21.60
2015,08,23,11,42,21.60
2015,08,23,11,43,21.60
2015,08,23,11,44,21.60
2015,08,23,11,45,21.70
2015,08,23,11,46,21.80
2015,08,23,11,47,21.80
2015,08,23,11,48,21.90
2015,08,23,11,49,22.00
2015,08,23,11,50,22.00
2015,08,23,11,51,22.00
2015,08,23,11,52,22.00
2015,08,23,11,53,21.90
2015,08,23,11,54,21.90
2015,08,23,11,55,21.90
2015,08,23,11,56,21.90
2015,08,23,11,57,21.90
2015,08,23,11,58,22.00
2015,08,23,11,59,22.00
2015,08,23,12,00,22.00
2015,08,23,12,01,22.10
2015,08,23,12,02,22.20
2015,08,23,12,03,22.20
2015,08,23,12,04,22.20
2015,08,23,12,05,22.20
2015,08,23,12,06,22.20
2015,08,23,12,07,22.10
2015,08,23,12,08,22.10
2015,08,23,12,09,22.20
2015,08,23,12,10,22.20
2015,08,23,12,11,22.20
2015,08,23,12,12,22.20
2015,08,23,12,13,22.20
2015,08,23,12,14,22.20
2015,08,23,12,15,22.20
2015,08,23,12,16,22.20
2015,08,23,12,17,22.30
2015,08,23,12,18,22.30
2015,08,23,12,19,22.30
2015,08,23,12,20,22.30
2015,08,23,12,21,22.30
2015,08,23,12,22,22.20
2015,08,23,12,23,22.20
2015,08,23,12,24,22.30
2015,08,23,12,25,22.30
2015,08,23,12,26,22.40
2015,08,23,12,27,22.40
2015,08,23,12,28,22.40
2015,08,23,12,29,22.30
2015,08,23,12,30,22.40
2015,08,23,12,31,22.40
2015,08,23,12,32,22.50
2015,08,23,12,33,22.60
2015,08,23,12,34,22.70
2015,08,23,12,35,22.60
2015,08,23,12,36,22.50
2015,08,23,12,37,22.40
2015,08,23,12,38,22.30
2015,08,23,12,39,22.30
2015,08,23,12,40,22.30
2015,08,23,12,41,22.30
2015,08,23,12,42,22.30
2015,08,23,12,43,22.30
2015,08,23,12,44,22.30
2015,08,23,12,45,22.30
2015,08,23,12,46,22.30
2015,08,23,12,47,22.40
2015,08,23,12,48,22.40
2015,08,23,12,49,22.50
2015,08,23,12,50,22.60
2015,08,23,12,51,22.60
2015,08,23,12,52,22.70
2015,08,23,12,53,22.80
2015,08,23,12,54,22.80
2015,08,23,12,55,22.80
2015,08,23,12,56,22.80
2015,08,23,12,57,22.90
2015,08,23,12,58,22.90
2015,08,23,12,59,22.90
2015,08,23,13,00,22.90
2015,08,23,13,01,22.90
2015,08,23,13,02,22.90
2015,08,23,13,03,22.90
2015,08,23,13,04,22.90
2015,08,23,13,05,23.00
2015,08,23,13,06,23.00
2015,08,23,13,07,23.00
2015,08,23,13,08,23.00
2015,08,23,13,09,23.00
2015,08,23,13,10,23.00
2015,08,23,13,11,23.00
2015,08,23,13,12,23.00
2015,08,23,13,13,23.00
2015,08,23,13,14,23.00
2015,08,23,13,15,22.90
2015,08,23,13,16,22.90
2015,08,23,13,17,23.00
2015,08,23,13,18,23.00
2015,08,23,13,19,22.90
2015,08,23,13,20,22.90
2015,08,23,13,21,22.80
2015,08,23,13,22,22.80
2015,08,23,13,23,22.80
2015,08,23,13,24,22.90
2015,08,23,13,25,23.00
2015,08,23,13,26,23.20
2015,08,23,13,27,23.20
2015,08,23,13,28,23.30
2015,08,23,13,29,23.30
2015,08,23,13,30,23.20
2015,08,23,13,31,23.20
2015,08,23,13,32,23.20
2015,08,23,13,33,23.30
2015,08,23,13,34,23.30
2015,08,23,13,35,23.30
2015,08,23,13,36,23.30
2015,08,23,13,37,23.20
2015,08,23,13,38,23.20
2015,08,23,13,39,23.20
2015,08,23,13,40,23.10
2015,08,23,13,41,23.20
2015,08,23,13,42,23.10
2015,08,23,13,43,23.10
2015,08,23,13,44,23.20
2015,08,23,13,45,23.20
2015,08,23,13,46,23.30
2015,08,23,13,47,23.40
2015,08,23,13,48,23.40
2015,08,23,13,49,23.50
2015,08,23,13,50,23.60
2015,08,23,13,51,23.60
2015,08,23,13,52,23.70
2015,08,23,13,53,23.60
2015,08,23,13,54,23.50
2015,08,23,13,55,23.50
2015,08,23,13,56,23.50
2015,08,23,13,57,23.50
2015,08,23,13,58,23.50
2015,08,23,13,59,23.60
2015,08,23,14,00,23.60
2015,08,23,14,01,23.60
2015,08,23,14,02,23.60
2015,08,23,14,03,23.60
2015,08,23,14,04,23.60
2015,08,23,14,05,23.60
2015,08,23,14,06,23.60
2015,08,23,14,07,23.60
2015,08,23,14,08,23.70
2015,08,23,14,09,23.70
2015,08,23,14,10,23.70
2015,08,23,14,11,23.70
2015,08,23,14,12,23.70
2015,08,23,14,13,23.80
2015,08,23,14,14,23.80
2015,08,23,14,15,23.80
2015,08,23,14,16,23.90
2015,08,23,14,17,23.90
2015,08,23,14,18,24.00
2015,08,23,14,19,24.00
2015,08,23,14,20,23.90
2015,08,23,14,21,23.90
2015,08,23,14,22,23.90
2015,08,23,14,23,23.90
2015,08,23,14,24,23.90
2015,08,23,14,25,24.00
2015,08,23,14,26,24.00
2015,08,23,14,27,24.00
2015,08,23,14,28,24.10
2015,08,23,14,29,24.10
2015,08,23,14,30,24.10
2015,08,23,14,31,24.10
2015,08,23,14,32,24.10
2015,08,23,14,33,24.10
2015,08,23,14,34,24.10
2015,08,23,14,35,24.10
2015,08,23,14,36,24.10
2015,08,23,14,37,24.10
2015,08,23,14,38,24.10
2015,08,23,14,39,24.00
2015,08,23,14,40,24.00
2015,08,23,14,41,23.90
2015,08,23,14,42,24.00
2015,08,23,14,43,24.00
2015,08,23,14,44,24.10
2015,08,23,14,45,24.20
2015,08,23,14,46,24.20
2015,08,23,14,47,24.20
2015,08,23,14,48,24.20
2015,08,23,14,49,24.20
2015,08,23,14,50,24.10
2015,08,23,14,51,24.10
2015,08,23,14,52,24.10
2015,08,23,14,53,24.20
2015,08,23,14,54,24.20
2015,08,23,14,55,24.30
2015,08,23,14,56,24.40
2015,08,23,14,57,24.40
2015,08,23,14,58,24.40
2015,08,23,14,59,24.40
2015,08,23,15,00,24.40
2015,08,23,15,01,24.50
2015,08,23,15,02,24.50
2015,08,23,15,03,24.50
2015,08,23,15,04,24.50
2015,08,23,15,05,24.50
2015,08,23,15,06,24.60
2015,08,23,15,07,24.60
2015,08,23,15,08,24.60
2015,08,23,15,09,24.60
2015,08,23,15,10,24.50
2015,08,23,15,11,24.50
2015,08,23,15,12,24.40
2015,08,23,15,13,24.40
2015,08,23,15,14,24.50
2015,08,23,15,15,24.60
2015,08,23,15,16,24.70
2015,08,23,15,17,24.60
2015,08,23,15,18,24.60
2015,08,23,15,19,24.50
2015,08,23,15,20,24.50
2015,08,23,15,21,24.40
2015,08,23,15,22,24.40
2015,08,23,15,23,24.40
2015,08,23,15,24,24.40
2015,08,23,15,25,24.40
2015,08,23,15,26,24.40
2015,08,23,15,27,24.40
2015,08,23,15,28,24.40
2015,08,23,15,29,24.40
2015,08,23,15,30,24.40
2015,08,23,15,31,24.40
2015,08,23,15,32,24.50
2015,08,23,15,33,24.50
2015,08,23,15,34,24.60
2015,08,23,15,35,24.60
2015,08,23,15,36,24.60
2015,08,23,15,37,24.60
2015,08,23,15,38,24.60
2015,08,23,15,39,24.70
2015,08,23,15,40,24.70
2015,08,23,15,41,24.70
2015,08,23,15,42,24.70
2015,08,23,15,43,24.70
2015,08,23,15,44,24.70
2015,08,23,15,45,24.70
2015,08,23,15,46,24.70
2015,08,23,15,47,24.70
2015,08,23,15,48,24.70
2015,08,23,15,49,24.70
2015,08,23,15,50,24.70
2015,08,23,15,51,24.70
2015,08,23,15,52,24.70
2015,08,23,15,53,24.70
2015,08,23,15,54,24.70
2015,08,23,15,55,24.70
2015,08,23,15,56,24.80
2015,08,23,15,57,24.90
2015,08,23,15,58,25.00
2015,08,23,15,59,25.10
2015,08,23,16,00,25.10
2015,08,23,16,01,25.10
2015,08,23,16,02,25.10
2015,08,23,16,03,25.10
2015,08,23,16,04,25.10
2015,08,23,16,05,25.10
2015,08,23,16,06,25.10
2015,08,23,16,07,25.00
2015,08,23,16,08,25.00
2015,08,23,16,09,25.00
2015,08,23,16,10,25.00
2015,08,23,16,11,24.90
2015,08,23,16,12,24.90
2015,08,23,16,13,24.90
2015,08,23,16,14,24.80
2015,08,23,16,15,24.80
2015,08,23,16,16,24.90
2015,08,23,16,17,24.90
2015,08,23,16,18,24.90
2015,08,23,16,19,24.90
2015,08,23,16,20,24.90
2015,08,23,16,21,24.90
2015,08,23,16,22,25.00
2015,08,23,16,23,25.00
2015,08,23,16,24,25.00
2015,08,23,16,25,25.00
2015,08,23,16,26,25.00
2015,08,23,16,27,25.00
2015,08,23,16,28,25.10
2015,08,23,16,29,25.10
2015,08,23,16,30,25.10
2015,08,23,16,31,25.10
2015,08,23,16,32,25.10
2015,08,23,16,33,25.10
2015,08,23,16,34,25.10
2015,08,23,16,35,25.10
2015,08,23,16,36,25.10
2015,08,23,16,37,25.10
2015,08,23,16,38,25.10
2015,08,23,16,39,25.10
2015,08,23,16,40,25.00
2015,08,23,16,41,25.00
2015,08,23,16,42,25.00
2015,08,23,16,43,25.10
2015,08,23,16,44,25.10
2015,08,23,16,45,25.10
2015,08,23,16,46,25.10
2015,08,23,16,47,25.20
2015,08,23,16,48,25.20
2015,08,23,16,49,25.20
2015,08,23,16,50,25.30
2015,08,23,16,51,25.20
2015,08,23,16,52,25.20
2015,08,23,16,53,25.20
2015,08,23,16,54,25.10
2015,08,23,16,55,25.10
2015,08,23,16,56,25.00
2015,08,23,16,57,25.00
2015,08,23,16,58,25.00
2015,08,23,16,59,25.00
2015,08,23,17,00,24.90
2015,08,23,17,01,24.90
2015,08,23,17,02,24.90
2015,08,23,17,03,24.90
2015,08,23,17,04,24.90
2015,08,23,17,05,24.90
2015,08,23,17,06,24.90
2015,08,23,17,07,24.90
2015,08,23,17,08,25.00
2015,08,23,17,09,25.00
2015,08,23,17,10,25.00
2015,08,23,17,11,25.00
2015,08,23,17,12,25.00
2015,08,23,17,13,24.90
2015,08,23,17,14,24.90
2015,08,23,17,15,25.00
2015,08,23,17,16,25.00
2015,08,23,17,17,25.00
2015,08,23,17,18,25.00
2015,08,23,17,19,25.00